Temp
62 62 61 61 62 62 62 62 62 62 63 63 62 62 62 62 61 65 68 81 80 80 81 83 82 85 85 80 80 81 66 60 64 70 74 81 77 83 85 79 80 83 78 79 83
61 61 61 61 61 62 62 62 62 62 62 62 62 62 62 62 60 66 81 82 82 81 85 80 79 83 75 77 78 72 62 71 76 76 79 81 81 80 78 77 77 76 81 83 84
61 61 60 61 61 61 61 61 62 61 61 61 61 62 62 61 63 75 81 82 83 82 89 87 86 82 75 78 78 76 69 80 87 83 85 82 80 82 76 72 75 73 76 80 81
61 60 60 60 61 61 61 61 61 61 61 61 61 62 62 59 62 87 81 80 83 85 85 83 81 74 71 73 82 73 81 83 85 89 84 81 82 79 79 79 83 81 81 80 79
60 60 60 60 60 60 60 60 60 60 60 61 62 62 58 59 67 88 83 82 83 84 81 80 77 74 71 75 79 76 81 87 90 88 85 86 82 80 80 85 86 83 82 80 79
60 59 59 59 60 60 60 60 59 59 60 61 62 62 55 58 84 88 88 84 86 83 80 80 79 80 76 77 76 81 82 84 87 87 88 83 84 84 83 86 82 81 80 80 80
59 59 59 59 59 60 59 59 59 59 60 61 62 62 58 68 85 85 84 79 82 84 80 82 85 78 77 76 83 82 76 82 83 87 84 87 76 77 83 84 79 79 80 80 81
59 59 59 59 59 59 58 57 58 59 61 62 63 59 54 79 82 82 83 82 86 84 86 86 86 80 75 81 80 74 69 65 78 83 83 81 67 80 84 82 79 79 80 80 80
58 58 58 58 58 58 57 57 58 63 64 63 56 54 57 81 75 81 83 83 84 84 86 95 82 76 75 69 63 64 60 65 72 84 82 74 66 79 84 81 79 80 79 80 79
58 58 58 58 57 57 56 57 58 61 64 67 69 57 68 77 83 85 83 88 83 82 81 80 73 67 63 61 54 59 60 65 67 77 77 70 67 79 82 80 79 80 81 82 80
58 57 57 57 57 55 54 48 60 58 59 61 62 66 76 82 88 85 87 84 82 76 67 72 63 62 64 66 70 69 66 66 74 80 71 73 72 78 80 79 78 78 79 80 83
58 57 57 56 56 56 51 56 60 65 55 72 73 74 78 79 75 81 88 77 74 68 69 65 62 68 74 73 71 71 67 67 74 79 73 69 73 77 79 79 79 79 79 80 82
57 57 56 55 55 55 53 58 68 67 54 65 74 73 74 76 70 74 80 79 73 67 67 64 67 77 74 72 69 69 67 69 67 75 71 72 68 72 77 78 81 82 82 83 82
57 57 56 54 53 52 55 65 67 67 47 58 65 72 75 76 68 84 84 82 74 70 71 65 76 74 73 71 70 58 75 76 73 65 59 70 54 66 71 71 78 80 81 82 83
57 56 55 54 45 47 61 63 65 60 41 73 72 82 75 72 75 78 87 77 73 71 68 64 71 71 70 72 75 68 75 74 74 67 58 66 57 62 69 69 73 77 81 83 84
56 55 54 50 47 54 60 59 57 49 41 64 76 71 67 69 73 79 80 79 79 72 73 70 78 76 75 78 78 80 71 70 65 66 53 64 64 59 61 72 77 82 82 84 85
54 53 53 56 45 56 57 55 45 39 65 66 63 67 65 66 70 70 74 70 66 56 59 68 72 75 78 69 74 71 59 52 51 52 53 64 59 65 74 78 83 84 80 84 87
53 52 53 57 51 53 53 48 36 55 57 65 61 64 63 66 67 71 66 67 70 62 57 58 57 70 77 73 66 64 64 55 45 45 51 61 55 68 77 83 84 87 82 85 87
52 48 50 52 60 55 45 35 41 51 58 56 57 54 56 63 60 65 66 67 71 71 60 53 58 72 79 78 76 66 58 69 54 48 49 55 63 71 76 79 82 82 82 85 87
46 42 46 58 60 52 40 38 45 57 59 58 47 53 47 52 54 55 55 69 72 77 77 64 53 68 78 78 79 69 70 57 50 48 49 52 57 60 68 72 78 80 82 86 89
42 38 52 61 58 46 37 39 51 59 61 54 50 49 52 51 53 52 55 66 72 74 77 73 60 63 67 66 67 66 64 55 60 54 53 45 60 69 70 72 74 82 86 87 89
39 33 53 61 39 39 40 46 53 55 60 57 57 55 53 55 52 53 54 61 71 70 59 70 65 60 64 72 77 76 68 62 58 50 53 62 63 74 75 77 77 83 85 88 90
36 36 52 50 32 35 42 48 50 50 50 49 49 52 52 48 44 51 53 64 60 60 58 60 59 55 54 60 62 65 71 71 56 54 58 51 57 75 74 74 77 78 82 85 88
37 32 39 43 43 38 36 41 42 53 52 52 49 51 46 43 46 44 48 56 56 57 61 57 54 56 57 63 64 60 69 70 69 61 61 62 58 67 70 71 74 76 83 81 81
37 33 37 30 34 38 41 41 39 40 47 49 45 47 42 35 41 43 48 48 54 59 54 48 41 55 62 69 72 68 68 71 66 70 63 68 61 66 69 71 76 80 79 84 84
38 37 39 37 35 35 39 40 36 42 43 40 41 46 44 37 42 40 43 41 42 49 46 46 41 49 54 66 73 69 72 73 71 72 70 66 64 72 76 72 75 78 83 79 83
46 47 40 38 34 30 32 39 39 45 45 47 47 44 42 46 50 49 50 48 46 43 43 41 41 43 42 61 68 60 71 71 71 72 72 63 68 71 71 73 75 77 76 80 81
MSLP
1019.04 1018.51 1018.01 1017.54 1016.98 1016.39 1015.92 1015.45 1015.02 1014.60 1014.08 1013.64 1013.27 1012.89 1012.37 1011.85 1010.96 1010.36 1008.93 1005.88 1006.27 1006.61 1006.87 1007.51 1008.00 1007.86 1008.33 1008.54 1008.71 1007.90 1007.89 1007.37 1006.83 1005.99 1005.90 1006.15 1006.31 1007.26 1007.10 1007.85 1008.60 1008.56 1009.56 1010.84 1011.71
1019.04 1018.50 1017.97 1017.43 1016.93 1016.43 1015.88 1015.35 1014.79 1014.38 1013.96 1013.46 1013.05 1012.66 1012.30 1011.87 1010.97 1008.60 1004.25 1004.11 1004.75 1005.78 1006.54 1006.94 1007.12 1007.33 1007.86 1007.76 1007.89 1007.81 1007.36 1005.80 1004.86 1004.74 1005.03 1005.36 1005.43 1006.16 1007.42 1008.16 1008.70 1009.11 1010.24 1011.04 1011.68
1019.02 1018.43 1017.82 1017.25 1016.65 1016.11 1015.56 1015.08 1014.63 1014.10 1013.69 1013.25 1012.79 1012.36 1012.00 1011.84 1010.50 1005.59 1003.16 1003.05 1004.06 1005.11 1005.71 1006.20 1006.44 1006.84 1006.97 1006.94 1006.57 1006.57 1006.14 1004.87 1002.87 1003.25 1004.08 1004.57 1004.94 1005.30 1006.57 1007.86 1007.68 1008.59 1009.87 1010.70 1011.40
1018.97 1018.32 1017.68 1017.02 1016.40 1015.74 1015.19 1014.59 1014.16 1013.86 1013.37 1012.99 1012.59 1012.08 1011.62 1011.59 1008.50 1003.60 1002.97 1002.79 1003.55 1004.72 1005.62 1005.90 1006.13 1006.46 1006.05 1005.68 1004.86 1005.31 1004.64 1004.16 1002.78 1002.14 1003.24 1004.07 1004.54 1005.50 1005.43 1005.87 1007.17 1007.67 1008.70 1009.93 1010.88
1018.82 1018.12 1017.36 1016.62 1015.91 1015.34 1014.78 1014.21 1013.58 1013.18 1012.95 1012.56 1012.31 1012.00 1011.35 1010.35 1006.14 1003.18 1002.98 1003.27 1004.05 1004.77 1005.09 1005.54 1005.75 1005.71 1005.41 1004.53 1004.06 1004.03 1003.64 1003.15 1002.44 1001.83 1002.11 1003.67 1003.99 1004.32 1005.54 1006.00 1007.42 1008.51 1009.12 1009.83 1010.57
1018.47 1017.81 1017.12 1016.32 1015.50 1014.76 1014.10 1013.53 1012.96 1012.41 1012.12 1011.98 1011.91 1011.89 1011.47 1008.61 1003.44 1002.66 1002.79 1003.52 1003.79 1004.24 1004.51 1004.88 1004.83 1004.74 1004.80 1004.03 1003.87 1003.07 1002.88 1002.58 1002.14 1001.50 1001.63 1003.06 1003.47 1004.00 1005.16 1005.96 1007.57 1008.28 1008.94 1009.60 1010.21
1018.54 1017.71 1016.85 1016.07 1015.23 1014.38 1013.56 1012.74 1012.17 1011.61 1011.13 1011.11 1011.35 1011.39 1010.28 1004.87 1002.72 1002.60 1002.45 1002.98 1003.00 1003.34 1003.92 1003.92 1004.03 1004.42 1004.12 1003.99 1003.13 1002.90 1002.82 1001.99 1001.71 1001.15 1002.08 1002.41 1003.73 1003.76 1004.33 1005.00 1006.68 1007.98 1008.73 1009.22 1009.73
1018.50 1017.70 1016.77 1015.79 1014.89 1014.01 1012.97 1011.97 1011.00 1010.33 1009.83 1009.98 1010.55 1010.66 1007.80 1002.97 1002.42 1002.59 1002.53 1002.89 1002.66 1002.96 1003.00 1002.94 1003.36 1003.98 1004.26 1003.43 1003.23 1003.26 1002.94 1002.26 1000.60 1000.98 1001.59 1001.78 1003.83 1004.02 1004.48 1005.17 1006.34 1007.51 1008.24 1008.78 1009.14
1018.25 1017.42 1016.52 1015.56 1014.58 1013.59 1012.27 1011.03 1009.99 1009.14 1008.92 1009.43 1010.07 1009.80 1005.61 1002.20 1002.17 1000.84 1001.61 1001.96 1002.06 1002.29 1002.47 1002.30 1003.21 1003.84 1004.05 1004.27 1004.20 1003.96 1003.39 1002.75 1001.23 1001.16 1001.66 1002.35 1003.84 1003.88 1004.37 1004.74 1005.67 1006.67 1007.52 1007.94 1008.61
1018.18 1017.25 1016.19 1015.10 1014.02 1013.16 1011.73 1010.00 1009.11 1009.31 1009.21 1009.27 1008.91 1008.82 1003.93 1001.26 1000.33 1000.04 1000.25 1001.07 1001.76 1001.91 1002.42 1002.48 1003.11 1003.61 1004.15 1004.64 1004.54 1004.30 1003.79 1002.72 1001.83 1001.38 1002.05 1002.61 1002.71 1003.33 1003.99 1004.80 1005.30 1005.77 1006.52 1007.07 1007.47
1018.11 1017.19 1016.09 1014.78 1013.72 1012.82 1011.64 1010.28 1009.33 1009.02 1008.62 1007.48 1006.50 1004.85 1002.04 1000.67 999.76 999.25 999.55 1000.57 1001.33 1001.78 1002.46 1002.55 1003.30 1003.30 1003.84 1004.07 1003.96 1003.90 1003.63 1003.00 1001.22 1001.25 1001.72 1002.04 1002.29 1002.61 1003.49 1004.59 1005.02 1005.53 1006.03 1006.30 1006.36
1017.90 1016.99 1015.92 1014.62 1013.23 1012.20 1012.06 1011.41 1010.41 1010.36 1007.53 1005.27 1003.69 1002.73 1001.46 1001.38 1001.01 999.30 998.98 1000.23 1000.93 1001.65 1002.32 1002.96 1002.53 1002.97 1003.25 1003.38 1003.50 1003.42 1003.22 1002.31 1001.47 1001.38 1001.92 1002.60 1002.08 1002.27 1003.08 1003.14 1003.41 1004.36 1005.24 1005.48 1006.05
1017.75 1016.87 1015.84 1014.38 1012.43 1011.67 1011.98 1010.41 1009.61 1009.16 1007.93 1002.99 1001.14 1000.29 999.74 1000.58 1000.50 999.26 999.20 999.21 1000.02 1001.11 1001.61 1002.06 1001.85 1002.18 1002.54 1002.69 1002.89 1002.62 1002.65 1001.66 1002.14 1001.72 1002.18 1002.41 1002.98 1003.27 1003.19 1003.54 1003.92 1004.05 1003.97 1004.50 1004.77
1017.60 1016.78 1016.09 1014.90 1012.55 1012.83 1011.07 1009.80 1009.38 1008.89 1007.51 1002.40 999.71 997.80 997.89 998.46 998.90 997.97 998.03 998.38 999.27 1000.07 1000.96 1001.25 1001.05 1001.38 1001.54 1001.61 1002.07 1002.00 1001.59 1001.53 1002.20 1002.64 1002.71 1002.23 1003.13 1002.99 1003.02 1003.05 1002.95 1003.15 1003.46 1003.70 1004.11
1017.47 1016.64 1016.08 1016.09 1015.37 1013.87 1010.67 1009.89 1009.30 1008.48 1006.22 999.88 997.66 996.27 996.72 997.29 996.57 996.09 997.05 998.07 998.32 999.07 1000.26 999.74 999.79 1000.16 1000.29 1000.40 1000.90 1000.91 1001.50 1001.57 1002.08 1002.64 1002.94 1002.26 1003.02 1001.97 1001.95 1002.38 1002.21 1002.13 1002.22 1002.63 1002.92
1017.36 1016.35 1015.74 1015.20 1015.12 1012.20 1011.04 1010.31 1009.55 1008.94 1004.83 999.56 996.78 996.73 997.56 997.45 996.51 995.60 996.31 997.31 997.74 998.53 998.83 999.21 998.98 999.15 999.14 999.65 1000.14 1000.55 1001.30 1001.50 1002.04 1002.58 1002.71 1002.08 1002.40 1001.70 1000.93 1000.53 1000.57 1000.44 1000.51 1000.72 1001.73
1017.10 1016.19 1015.04 1014.87 1013.17 1011.51 1011.34 1010.63 1010.14 1007.51 1002.69 999.69 998.83 998.62 997.59 997.33 997.05 996.36 996.44 997.19 997.55 998.46 998.56 998.83 998.56 998.24 998.35 999.12 999.40 1000.07 1001.35 1002.25 1002.45 1002.37 1001.46 1001.33 1001.41 999.96 998.82 998.49 998.41 998.60 999.25 999.49 999.92
1016.71 1015.72 1013.20 1012.44 1011.93 1012.33 1012.00 1011.37 1009.41 1005.38 1002.92 1000.73 1000.79 999.39 998.87 998.19 997.47 996.78 997.01 997.09 997.38 997.91 998.43 998.91 998.16 997.62 997.14 997.57 998.45 999.33 1000.22 1000.94 1001.99 1002.02 1001.41 1000.77 1000.04 998.21 997.37 996.93 996.65 996.82 997.91 998.43 998.92
1016.64 1015.04 1013.07 1010.99 1010.64 1012.03 1012.38 1010.89 1007.72 1005.63 1004.52 1003.29 1001.95 1001.08 1000.29 999.69 999.66 998.24 996.99 996.71 996.53 997.14 997.99 998.42 997.56 996.75 996.58 996.62 997.43 998.15 999.07 999.91 1001.31 1001.65 1001.46 999.95 998.48 997.15 996.58 996.41 996.21 996.91 997.31 997.10 997.46
1017.12 1016.00 1012.54 1010.65 1010.64 1011.60 1012.00 1009.85 1007.59 1005.75 1005.18 1004.71 1004.29 1003.20 1002.98 1002.48 1001.86 1000.89 998.96 996.37 996.02 996.14 996.60 997.11 997.26 995.93 995.51 995.91 996.24 996.79 997.80 999.46 1000.30 1000.86 1000.77 999.34 998.02 996.23 996.08 995.89 995.52 995.95 996.13 995.94 996.04
1017.25 1016.32 1011.28 1010.54 1010.04 1011.10 1010.95 1009.76 1008.01 1005.96 1006.06 1005.88 1005.39 1005.29 1004.68 1004.46 1003.61 1003.05 1000.76 998.19 996.97 996.45 996.04 996.38 997.00 995.80 995.36 995.03 995.24 996.13 996.79 997.93 998.73 999.50 999.48 998.99 995.78 995.12 995.10 995.11 995.04 994.36 993.77 994.47 995.00
1017.77 1016.77 1011.49 1011.27 1011.66 1011.10 1010.63 1009.44 1008.66 1007.28 1006.44 1006.28 1006.06 1005.81 1005.76 1005.19 1003.86 1003.42 1001.86 1000.83 999.01 999.53 998.94 997.43 996.61 995.85 994.93 993.85 993.98 994.69 995.27 996.57 997.60 998.24 998.04 996.93 992.99 994.08 994.26 994.21 994.16 993.59 993.80 993.63 993.52
1018.31 1016.37 1012.52 1012.30 1012.92 1012.79 1011.67 1010.31 1009.57 1008.48 1007.68 1007.31 1007.21 1006.88 1006.79 1006.63 1005.75 1003.97 1003.00 1001.79 1002.52 1001.68 1000.80 999.74 996.84 996.48 994.97 993.94 993.86 993.73 993.89 994.51 995.49 996.42 996.59 996.11 994.28 993.72 994.07 993.88 993.45 993.93 993.96 994.23 994.52
1018.58 1017.40 1014.56 1013.59 1014.12 1014.36 1013.37 1011.77 1010.54 1009.57 1008.65 1008.35 1008.10 1007.58 1007.68 1007.31 1006.91 1005.83 1004.92 1003.82 1003.83 1003.83 1002.63 1000.84 998.73 996.42 994.09 992.88 993.13 992.82 992.72 993.34 993.92 994.69 994.99 993.42 994.27 993.89 993.84 993.91 993.95 993.56 993.16 993.26 993.53
1018.51 1017.80 1016.43 1015.75 1014.99 1015.20 1014.42 1013.15 1011.72 1010.72 1009.91 1009.18 1008.88 1008.83 1008.88 1008.59 1007.66 1006.71 1006.18 1005.84 1004.98 1004.69 1004.23 1003.25 1000.59 997.70 995.31 993.42 991.63 991.18 991.29 991.67 991.99 992.23 992.40 992.58 993.42 993.70 993.54 993.33 993.18 992.95 992.93 992.35 992.80
1018.31 1017.94 1017.25 1016.53 1015.89 1015.42 1014.36 1013.14 1012.71 1011.72 1011.37 1010.17 1009.72 1009.32 1009.14 1009.01 1008.56 1007.76 1007.52 1007.24 1006.71 1005.80 1005.74 1004.34 1002.24 998.97 995.32 992.76 990.87 990.09 990.09 989.64 990.06 990.64 990.92 991.34 992.01 992.01 991.96 991.96 992.31 992.16 992.43 992.85 991.75
1017.73 1017.39 1017.26 1016.51 1015.89 1015.63 1014.59 1013.73 1013.16 1012.35 1011.41 1010.73 1009.96 1009.65 1008.94 1008.29 1007.82 1007.40 1007.15 1007.10 1007.10 1007.13 1006.33 1005.53 1003.11 1000.71 996.39 992.89 991.07 990.01 986.65 988.38 988.97 989.33 989.96 990.60 991.16 991.19 991.49 991.38 991.65 991.47 991.77 991.71 991.63
Wind_Speed
20 20 20 20 21 21 21 20 20 20 20 20 19 19 18 18 19 4 9 14 12 23 14 11 9 9 11 10 4 3 3 4 4 2 9 15 17 12 8 20 10 6 14 22 21
21 21 22 22 21 21 21 20 21 20 20 21 19 19 18 17 5 10 19 17 18 21 10 12 10 13 6 8 6 5 3 6 10 3 8 21 23 18 14 19 10 22 19 21 20
22 22 23 23 23 23 22 22 22 22 21 20 19 18 16 13 5 10 3 20 18 16 8 11 9 7 11 6 8 10 11 10 18 13 13 21 22 19 25 15 26 27 26 25 20
22 23 23 24 24 24 24 24 23 21 22 20 18 17 16 2 6 2 7 4 17 13 7 6 6 5 5 9 10 9 17 18 24 5 11 20 20 16 24 14 25 29 31 27 23
23 23 24 25 26 25 25 24 24 23 21 20 16 14 5 2 15 6 2 11 7 9 9 10 8 6 6 6 2 8 9 15 17 14 7 16 19 24 17 21 22 25 25 26 20
24 24 24 25 25 26 26 25 24 24 22 19 14 7 3 9 7 10 10 7 7 7 7 8 9 9 6 8 6 4 8 10 15 18 10 7 10 16 16 26 24 28 25 23 23
24 25 27 27 27 28 28 28 27 27 25 18 10 5 5 22 5 3 6 6 8 9 7 8 11 5 2 8 5 6 7 11 11 22 4 15 7 15 26 29 29 27 24 23 22
23 25 26 28 29 29 30 30 31 31 23 12 8 5 12 8 14 16 13 10 8 7 11 10 10 9 4 8 8 5 2 5 8 10 12 11 13 14 25 28 28 28 23 22 21
24 25 26 28 29 30 31 33 32 17 2 11 6 4 13 8 6 12 9 10 12 9 8 12 7 8 3 4 6 4 6 6 13 12 12 4 6 11 25 26 27 24 25 21 19
25 26 28 29 31 29 32 31 17 2 6 6 5 2 8 7 5 5 10 14 5 7 4 6 3 5 1 5 7 6 4 6 7 4 6 3 6 18 26 24 24 24 22 22 20
24 26 28 31 32 31 19 8 5 3 2 8 8 9 14 5 5 6 8 10 5 3 8 6 4 12 9 7 6 5 6 8 14 5 7 18 15 23 25 23 23 21 20 19 21
25 26 28 31 34 33 3 4 3 7 15 16 24 27 28 1 9 8 9 9 9 11 6 4 12 8 8 7 9 10 12 18 12 7 5 8 22 20 23 27 28 24 21 22 19
25 26 28 31 38 5 6 6 7 14 5 9 16 16 13 18 16 20 6 10 9 9 9 12 9 13 10 11 10 14 15 19 10 6 1 8 3 7 10 9 14 19 22 22 24
24 25 25 30 8 9 7 8 15 10 4 11 7 10 8 10 10 20 12 14 6 18 12 9 14 13 18 14 11 11 12 19 10 2 5 4 5 6 8 9 20 22 21 22 23
25 26 23 15 6 6 9 15 17 2 6 4 5 3 9 12 6 14 18 4 16 9 8 9 17 17 16 16 16 13 9 14 13 9 2 8 3 8 11 12 16 18 21 22 23
25 27 26 5 3 14 13 14 3 5 10 8 5 7 9 5 3 1 11 4 3 8 10 12 8 14 15 13 18 14 6 9 3 9 7 14 13 7 10 20 19 23 22 24 23
24 26 25 6 7 5 7 4 4 6 5 5 5 8 3 9 8 2 20 16 14 8 11 10 16 7 7 9 9 8 7 6 6 8 12 10 7 12 17 18 24 25 16 19 26
25 27 13 10 7 6 4 4 7 5 9 8 11 12 5 4 7 7 7 17 14 5 5 11 12 14 8 17 10 9 14 10 11 4 5 5 8 12 16 23 26 25 16 17 22
22 6 8 6 6 5 3 4 8 7 6 12 11 5 8 8 14 7 14 17 15 19 13 8 13 3 19 11 15 11 7 14 7 3 1 6 7 7 8 18 21 19 16 21 26
7 5 7 7 2 4 3 5 6 3 12 9 3 3 11 14 10 17 6 8 14 23 22 11 4 9 21 14 20 12 8 4 1 12 16 5 6 9 7 11 16 23 23 25 29
3 5 6 8 5 3 7 7 6 21 9 8 15 14 17 11 9 10 12 16 7 9 22 20 8 10 3 11 15 9 10 2 4 8 11 4 17 8 11 10 12 25 31 29 27
3 4 4 13 5 2 6 7 9 17 22 12 10 18 15 16 17 10 12 10 20 18 9 13 14 17 23 11 11 21 13 11 9 9 7 15 24 3 9 10 11 21 25 27 28
2 6 6 4 5 7 10 9 8 11 8 7 5 7 8 5 7 9 8 11 19 15 9 12 6 10 8 8 1 8 15 16 7 5 16 9 5 7 6 5 6 10 9 12 16
2 5 6 4 2 8 8 8 11 10 9 3 6 4 8 2 2 7 13 10 23 20 20 11 7 12 20 20 7 7 12 14 19 13 13 20 6 6 5 3 6 8 16 13 11
0 4 3 5 5 9 9 9 11 11 9 5 4 10 4 4 6 5 4 12 12 6 15 8 7 8 15 19 19 11 12 19 21 22 20 18 11 10 9 9 11 9 11 16 16
2 3 4 6 5 6 4 3 8 12 9 7 5 11 3 4 10 16 11 4 4 7 11 6 7 9 9 16 25 21 19 22 18 21 21 10 8 11 12 8 8 10 12 10 12
3 3 2 5 5 3 4 7 14 17 8 8 14 8 11 13 9 8 12 11 12 6 6 5 4 10 8 7 20 15 32 19 13 13 14 13 11 11 9 10 11 9 10 12 14
Wind_Direction
354 350 347 345 342 339 337 334 333 332 330 329 328 325 324 324 316 172 237 220 183 176 137 171 216 189 192 179 189 272 344 326 265 184 148 153 135 160 134 136 157 205 142 159 157
353 349 346 343 340 336 333 331 329 328 326 325 325 323 323 328 303 252 240 206 192 161 176 168 193 192 196 204 205 166 223 226 199 180 151 159 156 138 137 149 132 115 139 153 157
349 346 343 341 337 334 331 329 327 325 323 323 321 320 319 324 301 249 8 213 195 157 180 190 218 188 219 202 207 198 214 250 263 199 141 155 153 149 151 176 152 150 155 161 163
345 342 339 336 334 331 329 325 323 321 319 319 318 318 312 254 277 219 41 141 188 158 159 205 228 201 229 208 199 207 221 219 243 239 168 177 152 158 169 171 160 157 159 163 168
342 338 335 332 330 328 325 321 317 315 314 313 314 317 335 239 246 272 288 97 115 155 186 187 192 180 225 229 211 209 240 210 234 265 147 162 166 167 181 147 155 154 160 164 168
338 336 333 330 327 325 322 318 314 310 308 304 304 310 228 247 248 226 222 146 166 166 190 172 202 208 281 234 214 248 281 249 221 243 156 145 173 137 168 150 152 161 167 169 173
336 334 332 330 326 323 320 316 310 305 300 292 274 220 244 233 242 31 112 201 178 181 192 198 217 183 194 292 287 242 284 294 208 233 112 125 140 164 160 154 157 171 174 176 182
334 331 329 326 324 322 318 313 309 305 294 263 204 190 246 234 241 258 259 257 248 226 210 205 191 217 204 287 326 347 13 301 278 226 176 123 186 163 160 159 167 171 178 183 185
333 330 326 324 322 321 316 312 308 308 120 151 131 179 266 281 206 233 164 205 213 237 238 218 136 200 277 223 357 7 250 261 304 161 164 124 200 177 168 167 170 175 180 185 185
330 328 326 325 323 323 318 310 290 273 138 175 256 342 262 249 228 201 171 204 173 206 214 203 176 176 65 121 215 220 260 272 248 122 165 209 178 174 174 176 176 182 186 185 176
329 327 325 323 322 321 331 345 6 1 182 251 219 257 291 268 304 223 159 168 184 151 196 228 166 222 219 194 212 227 257 255 265 352 116 184 165 166 175 178 181 184 187 191 199
329 328 327 322 320 320 333 360 195 298 296 246 247 243 247 13 314 301 136 157 155 198 154 247 227 204 199 215 215 231 248 264 298 273 146 213 177 180 175 188 181 182 188 190 196
329 329 328 327 319 348 297 238 335 340 264 272 227 235 228 198 224 255 200 172 168 178 187 207 224 200 204 226 224 228 230 254 237 317 350 139 62 178 190 162 193 195 190 192 190
327 328 332 338 6 334 280 316 333 316 325 274 236 249 173 143 220 222 196 181 173 194 204 218 214 203 212 221 208 235 229 249 255 301 243 238 217 229 217 185 182 191 196 197 196
327 326 329 335 270 303 283 331 321 58 318 222 231 118 152 170 161 210 201 214 191 166 168 220 189 214 209 213 218 239 224 249 242 241 154 274 92 255 175 216 195 194 192 197 199
324 322 327 332 258 246 297 299 11 58 246 290 191 139 124 250 267 34 158 180 170 181 215 203 218 198 213 213 217 226 234 262 239 229 236 239 203 250 176 207 209 198 196 190 194
320 317 313 279 238 296 344 2 69 205 301 250 356 352 273 165 239 142 183 188 203 158 213 216 227 217 163 195 221 182 165 254 260 229 231 218 217 219 210 198 208 205 199 195 193
315 313 268 247 233 267 343 64 209 225 264 32 349 315 207 106 259 211 161 206 211 148 164 210 243 217 214 212 204 191 190 199 211 212 247 224 212 235 212 209 208 210 199 199 193
321 298 280 270 233 130 85 184 208 205 16 353 352 343 4 29 9 329 206 204 211 200 194 179 240 229 216 217 194 232 185 203 186 202 350 217 259 288 219 222 219 216 193 197 193
323 307 267 269 331 111 109 240 238 330 9 352 297 312 360 350 328 3 307 257 209 200 197 213 271 212 230 210 241 186 175 214 312 214 239 260 228 228 216 218 216 200 195 201 197
5 333 283 2 360 129 217 223 270 290 322 1 318 297 295 312 310 302 264 308 300 225 201 208 181 237 165 209 213 203 210 190 173 158 227 222 250 188 230 236 203 203 195 194 191
354 313 309 336 17 273 226 199 255 271 282 285 285 279 281 300 284 266 247 221 322 313 316 269 212 232 232 208 200 224 210 177 200 225 239 230 244 124 195 239 210 198 203 198 197
298 259 302 85 27 349 350 356 23 7 359 344 324 13 14 338 321 343 337 338 13 4 351 335 218 233 286 290 189 197 217 216 127 123 219 212 264 196 217 272 180 174 180 201 207
338 315 316 17 48 12 340 350 335 327 318 21 296 349 359 349 214 300 310 333 343 344 352 328 233 245 238 225 176 196 206 205 213 211 220 232 213 277 266 190 264 265 206 181 189
248 262 295 316 339 332 336 288 2 358 11 345 338 352 57 302 300 275 326 328 327 356 354 12 274 253 262 261 202 190 190 209 211 219 208 231 204 225 238 234 232 230 245 178 174
252 307 327 295 294 337 310 324 355 330 338 312 322 324 270 201 284 310 303 355 224 325 351 331 285 330 281 257 218 210 211 219 213 220 225 202 212 185 224 224 228 199 214 264 217
219 255 240 281 311 340 261 339 311 307 310 279 295 296 288 295 264 263 264 251 245 274 297 268 316 352 278 269 213 227 217 208 208 212 203 207 203 187 203 205 210 228 198 212 211